Location: Cueva de Ratón
(10.1013°N, 67.6606°W)
Time: 19:34:18
(UTC+00:00)

NOSS 3-4 (C) - Pass Details

Date: 02 December 2023
Orbit: 810 x 1402 km, 63.4° (Epoch: 22 February)

Event Time Altitude Azimuth Distance (km) Brightness Sun altitude
Rises 23:25:34 0° 332° (NNW) 4,141 6.9 -18.8°
Reaches altitude 10° 23:28:14 10° 330° (NNW) 3,246 6.3 -19.4°
Maximum altitude 23:36:13 72° 247° (WSW) 1,421 4.4 -21.3°
Drops below altitude 10° 23:44:50 10° 165° (SSE) 3,481 6.4 -23.3°
Sets 23:47:48 0° 162° (SSE) 4,455 7.0 -24.0°
